| time (UTC) | temp C | wind direction | speed KPH | gust KPH | rain 1hr cm | rain 24hr cm | rain mn cm | humidity % | barometer mb |
| 20260507141550 | 9 | 262 | 0.0 | 6.4 | 0.00 | 0.00 | 0.00 | 64 | 1020.8 |
| 20260507140038 | 8 | 252 | 1.6 | 6.4 | 0.00 | 0.00 | 0.00 | 63 | 1020.6 |
| 20260507134536 | 8 | 258 | 0.0 | 8.0 | 0.00 | 0.00 | 0.00 | 63 | 1020.5 |
| 20260507133104 | 8 | 261 | 1.6 | 6.4 | 0.00 | 0.00 | 0.00 | 63 | 1020.5 |
| 20260507131537 | 8 | 277 | 1.6 | 4.8 | 0.00 | 0.00 | 0.00 | 63 | 1020.5 |
| 20260507130037 | 8 | 269 | 3.2 | 11.3 | 0.00 | 0.00 | 0.00 | 63 | 1020.6 |
| 20260507124529 | 8 | 227 | 3.2 | 12.9 | 0.00 | 0.00 | 0.00 | 64 | 1020.4 |
| 20260507123036 | 9 | 246 | 3.2 | 9.7 | 0.00 | 0.00 | 0.00 | 64 | 1020.5 |
| 20260507121525 | 9 | 245 | 4.8 | 12.9 | 0.00 | 0.00 | 0.00 | 64 | 1020.6 |
| 20260507120024 | 9 | 277 | 4.8 | 11.3 | 0.00 | 0.00 | 0.00 | 64 | 1020.7 |
| 20260507114603 | 9 | 255 | 3.2 | 11.3 | 0.00 | 0.00 | 0.00 | 64 | 1020.6 |
| 20260507113051 | 10 | 246 | 1.6 | 9.7 | 0.00 | 0.00 | 0.00 | 64 | 1020.7 |
| 20260507111518 | 10 | 283 | 3.2 | 11.3 | 0.00 | 0.00 | 0.00 | 64 | 1020.7 |
| 20260507110017 | 10 | 262 | 1.6 | 11.3 | 0.00 | 0.00 | 0.00 | 65 | 1020.8 |
| 20260507104515 | 10 | 265 | 1.6 | 12.9 | 0.00 | 0.00 | 0.00 | 65 | 1020.8 |
| 20260507103014 | 10 | 260 | 4.8 | 11.3 | 0.00 | 0.00 | 0.00 | 65 | 1020.9 |
| 20260507101512 | 10 | 281 | 4.8 | 12.9 | 0.00 | 0.00 | 0.00 | 65 | 1021.0 |
| 20260507100017 | 10 | 294 | 1.6 | 16.1 | 0.00 | 0.00 | 0.00 | 65 | 1021.0 |
| 20260507094507 | 10 | 257 | 4.8 | 12.9 | 0.00 | 0.00 | 0.00 | 65 | 1021.1 |
| 20260507093007 | 10 | 254 | 3.2 | 12.9 | 0.00 | 0.00 | 0.00 | 65 | 1021.2 |
| 20260507091505 | 10 | 276 | 4.8 | 12.9 | 0.00 | 0.00 | 0.00 | 64 | 1021.3 |
| 20260507090007 | 10 | 257 | 3.2 | 11.3 | 0.00 | 0.00 | 0.00 | 64 | 1021.4 |
| 20260507084536 | 10 | 272 | 3.2 | 14.5 | 0.00 | 0.00 | 0.00 | 64 | 1021.4 |
| 20260507083031 | 10 | 260 | 4.8 | 14.5 | 0.00 | 0.00 | 0.00 | 64 | 1021.5 |
| 20260507081527 | 10 | 256 | 1.6 | 12.9 | 0.00 | 0.00 | 0.00 | 64 | 1021.4 |
| 20260507080025 | 11 | 260 | 3.2 | 12.9 | 0.00 | 0.00 | 0.00 | 65 | 1021.4 |
| 20260507074524 | 11 | 233 | 4.8 | 12.9 | 0.00 | 0.00 | 0.00 | 64 | 1021.3 |
| 20260507073021 | 11 | 283 | 3.2 | 12.9 | 0.00 | 0.00 | 0.00 | 64 | 1021.3 |
| 20260507071519 | 11 | 262 | 4.8 | 12.9 | 0.00 | 0.00 | 0.00 | 64 | 1021.2 |
| 20260507070026 | 11 | 238 | 1.6 | 11.3 | 0.00 | 0.00 | 0.00 | 63 | 1021.2 |
| 20260507064516 | 11 | 285 | 4.8 | 11.3 | 0.00 | 0.00 | 0.00 | 63 | 1021.2 |
| 20260507063014 | 11 | 223 | 1.6 | 14.5 | 0.00 | 0.00 | 0.00 | 63 | 1021.2 |
| 20260507061510 | 11 | 247 | 4.8 | 14.5 | 0.00 | 0.00 | 0.00 | 63 | 1021.1 |
| 20260507060013 | 11 | 247 | 4.8 | 12.9 | 0.00 | 0.00 | 0.00 | 63 | 1021.2 |
| 20260507054505 | 11 | 261 | 6.4 | 14.5 | 0.00 | 0.00 | 0.00 | 63 | 1021.1 |
| 20260507053005 | 12 | 255 | 4.8 | 14.5 | 0.00 | 0.00 | 0.00 | 62 | 1021.0 |
| 20260507051600 | 12 | 249 | 3.2 | 14.5 | 0.00 | 0.00 | 0.00 | 62 | 1021.0 |
| 20260507050057 | 12 | 240 | 6.4 | 17.7 | 0.00 | 0.00 | 0.00 | 62 | 1021.0 |
| 20260507044622 | 12 | 186 | 8.0 | 19.3 | 0.00 | 0.00 | 0.00 | 62 | 1021.1 |
| 20260507043053 | 12 | 228 | 9.7 | 24.1 | 0.00 | 0.00 | 0.00 | 62 | 1021.1 |
| 20260507041553 | 12 | 281 | 8.0 | 17.7 | 0.00 | 0.00 | 0.00 | 62 | 1020.9 |
| 20260507040047 | 13 | 255 | 11.3 | 22.5 | 0.00 | 0.00 | 0.00 | 62 | 1020.6 |
| 20260507034545 | 13 | 252 | 9.7 | 19.3 | 0.00 | 0.00 | 0.00 | 62 | 1020.4 |
| 20260507033049 | 13 | 260 | 9.7 | 19.3 | 0.00 | 0.00 | 0.00 | 62 | 1020.4 |
| 20260507031551 | 13 | 233 | 6.4 | 19.3 | 0.00 | 0.00 | 0.00 | 62 | 1020.2 |
| 20260507030004 | 14 | 230 | 6.4 | 14.5 | 0.00 | 0.00 | 0.00 | 61 | 1020.1 |
| 20260507024614 | 15 | 262 | 8.0 | 16.1 | 0.00 | 0.00 | 0.00 | 60 | 1020.0 |
| 20260507023054 | 15 | 246 | 4.8 | 17.7 | 0.00 | 0.00 | 0.00 | 59 | 1020.0 |
| 20260507021556 | 15 | 262 | 6.4 | 14.5 | 0.00 | 0.00 | 0.00 | 58 | 1020.0 |
| 20260507020056 | 16 | 247 | 4.8 | 12.9 | 0.00 | 0.00 | 0.00 | 57 | 1020.1 |
| 20260507014554 | 16 | 260 | 4.8 | 16.1 | 0.00 | 0.00 | 0.00 | 57 | 1020.2 |
| 20260507013041 | 17 | 266 | 3.2 | 9.7 | 0.00 | 0.00 | 0.00 | 55 | 1020.3 |
| 20260507011545 | 18 | 269 | 0.0 | 4.8 | 0.00 | 0.00 | 0.00 | 54 | 1020.2 |
| 20260507010042 | 18 | 271 | 0.0 | 3.2 | 0.00 | 0.00 | 0.00 | 54 | 1020.3 |
| 20260507004535 | 18 | 269 | 0.0 | 3.2 | 0.00 | 0.00 | 0.00 | 53 | 1020.3 |
| 20260507003005 | 18 | 269 | 0.0 | 6.4 | 0.00 | 0.00 | 0.00 | 52 | 1020.3 |
| 20260507001505 | 18 | 278 | 0.0 | 8.0 | 0.00 | 0.00 | 0.00 | 51 | 1020.3 |
| 20260507000035 | 20 | 249 | 0.0 | 4.8 | 0.00 | 0.00 | 0.00 | 50 | 1020.3 |
| 20260506234541 | 18 | 250 | 0.0 | 3.2 | 0.00 | 0.00 | 0.00 | 51 | 1020.2 |
| 20260506233030 | 18 | 252 | 1.6 | 11.3 | 0.00 | 0.00 | 0.00 | 50 | 1020.3 |
| 20260506231528 | 20 | 314 | 1.6 | 6.4 | 0.00 | 0.00 | 0.00 | 48 | 1020.2 |
| 20260506230026 | 20 | 268 | 1.6 | 4.8 | 0.00 | 0.00 | 0.00 | 48 | 1020.4 |
| 20260506224525 | 18 | 267 | 0.0 | 9.7 | 0.00 | 0.00 | 0.00 | 53 | 1020.5 |
| 20260506223019 | 18 | 294 | 0.0 | 8.0 | 0.00 | 0.00 | 0.00 | 51 | 1020.6 |
| 20260506221515 | 18 | 298 | 1.6 | 4.8 | 0.00 | 0.00 | 0.00 | 52 | 1020.8 |
| 20260506220015 | 18 | 307 | 4.8 | 9.7 | 0.00 | 0.00 | 0.00 | 53 | 1020.7 |
| 20260506214510 | 17 | 269 | 0.0 | 6.4 | 0.00 | 0.00 | 0.00 | 54 | 1020.7 |
| 20260506213008 | 17 | 256 | 1.6 | 8.0 | 0.00 | 0.00 | 0.00 | 57 | 1021.0 |
| 20260506211509 | 17 | 254 | 4.8 | 8.0 | 0.00 | 0.00 | 0.00 | 56 | 1021.2 |
| 20260506210012 | 16 | 249 | 3.2 | 8.0 | 0.00 | 0.00 | 0.00 | 58 | 1021.1 |
| 20260506204506 | 17 | 237 | 0.0 | 8.0 | 0.00 | 0.00 | 0.00 | 57 | 1021.1 |
| 20260506203001 | 17 | 313 | 0.0 | 4.8 | 0.00 | 0.00 | 0.00 | 57 | 1021.0 |
| 20260506201558 | 16 | 263 | 0.0 | 8.0 | 0.00 | 0.00 | 0.00 | 60 | 1021.0 |
| 20260506200104 | 15 | 262 | 1.6 | 8.0 | 0.00 | 0.00 | 0.00 | 62 | 1021.1 |
| 20260506194557 | 15 | 269 | 0.0 | 8.0 | 0.00 | 0.00 | 0.00 | 62 | 1021.3 |
| 20260506193025 | 15 | 261 | 1.6 | 8.0 | 0.00 | 0.00 | 0.00 | 60 | 1021.2 |
| 20260506191526 | 15 | 260 | 1.6 | 8.0 | 0.00 | 0.00 | 0.00 | 61 | 1021.1 |
| 20260506190022 | 15 | 253 | 1.6 | 8.0 | 0.00 | 0.00 | 0.00 | 61 | 1021.2 |
| 20260506184522 | 15 | 252 | 1.6 | 6.4 | 0.00 | 0.00 | 0.00 | 63 | 1021.1 |
| 20260506183022 | 14 | 256 | 1.6 | 8.0 | 0.00 | 0.00 | 0.00 | 63 | 1021.1 |
| 20260506181521 | 14 | 258 | 1.6 | 8.0 | 0.00 | 0.00 | 0.00 | 63 | 1021.1 |
| 20260506180025 | 15 | 262 | 1.6 | 8.0 | 0.00 | 0.00 | 0.00 | 62 | 1021.1 |
| 20260506174519 | 14 | 274 | 3.2 | 9.7 | 0.00 | 0.00 | 0.00 | 63 | 1020.9 |
| 20260506173019 | 13 | 263 | 0.0 | 3.2 | 0.00 | 0.00 | 0.00 | 66 | 1021.0 |
| 20260506171516 | 12 | 262 | 1.6 | 11.3 | 0.00 | 0.00 | 0.00 | 67 | 1021.0 |
| 20260506170011 | 12 | 272 | 3.2 | 11.3 | 0.00 | 0.00 | 0.00 | 67 | 1020.9 |
| 20260506164510 | 12 | 270 | 3.2 | 11.3 | 0.00 | 0.00 | 0.00 | 67 | 1020.8 |
| 20260506163011 | 13 | 272 | 3.2 | 6.4 | 0.00 | 0.00 | 0.00 | 65 | 1020.6 |
| 20260506161508 | 13 | 47 | 0.0 | 6.4 | 0.00 | 0.00 | 0.00 | 68 | 1020.4 |
| 20260506160005 | 12 | 151 | 1.6 | 6.4 | 0.00 | 0.00 | 0.00 | 71 | 1020.2 |
| 20260506154503 | 11 | 251 | 0.0 | 11.3 | 0.00 | 0.00 | 0.00 | 71 | 1020.6 |
| 20260506153001 | 11 | 248 | 6.4 | 14.5 | 0.00 | 0.00 | 0.00 | 70 | 1020.8 |
| 20260506151603 | 11 | 252 | 4.8 | 12.9 | 0.00 | 0.00 | 0.00 | 71 | 1020.8 |
| 20260506150056 | 11 | 269 | 4.8 | 12.9 | 0.00 | 0.00 | 0.00 | 70 | 1020.6 |
| 20260506144551 | 12 | 262 | 3.2 | 11.3 | 0.00 | 0.00 | 0.00 | 70 | 1020.4 |
| 20260506143049 | 12 | 274 | 1.6 | 4.8 | 0.00 | 0.00 | 0.00 | 70 | 1020.0 |